This is the latest recevied weather packets stored in our database for station/object WD7OO. If no packets are shown the sender has not sent any weather packets the latest 10 day(s).
| Time | Temp. | Humidity | Pressure | Rain* | Wind** | Luminosity | Snow |
|---|---|---|---|---|---|---|---|
| 1788137709 | 20.56° C | 99% | 1016.8 hPa | 0 mm | - | 0 W/m² | - |
| 1788137408 | 20.56° C | 99% | 1016.7 hPa | 0 mm | - | 0 W/m² | - |
| 1788137104 | 20.56° C | 99% | 1016.7 hPa | 0 mm | - | 0 W/m² | - |
| 1788136800 | 20.56° C | 99% | 1016.5 hPa | 0 mm | - | 0 W/m² | - |
| 1788136496 | 20.56° C | 99% | 1016.6 hPa | 0 mm | - | 0 W/m² | - |
| 1788136195 | 20.56° C | 99% | 1016.7 hPa | 0 mm | - | 0 W/m² | - |
| 1788135894 | 20.56° C | 99% | 1016.7 hPa | 0 mm | - | 0 W/m² | - |
| 1788135589 | 20.56° C | 99% | 1016.7 hPa | 0 mm | - | 0 W/m² | - |
| 1788135285 | 20.56° C | 99% | 1016.6 hPa | 0 mm | - | 0 W/m² | - |
| 1788134982 | 20.56° C | 99% | 1016.7 hPa | 0 mm | - | 0 W/m² | - |
| 1788134677 | 20.56° C | 99% | 1016.7 hPa | 0 mm | - | 0 W/m² | - |
| 1788134375 | 20.56° C | 99% | 1017.1 hPa | 0 mm | - | 0 W/m² | - |
| 1788134071 | 20.56° C | 99% | 1016.8 hPa | 1.27 mm | - | 1 W/m² | - |
| 1788133766 | 20.56° C | 99% | 1017.1 hPa | 1.27 mm | - | 1 W/m² | - |
| 1788133461 | 20.56° C | 99% | 1017 hPa | 0 mm | - | 2 W/m² | - |
| 1788133157 | 20.56° C | 99% | 1017.4 hPa | 0 mm | - | 2 W/m² | - |
| 1788132852 | 20.56° C | 99% | 1017.2 hPa | 0 mm | - | 4 W/m² | - |
| 1788132548 | 20.56° C | 99% | 1017 hPa | 0 mm | - | 7 W/m² | - |
| 1788132257 | 20.56° C | 99% | 1017.1 hPa | 0 mm | - | 9 W/m² | - |
| 1788131940 | 20.56° C | 99% | 1016.7 hPa | 0 mm | - | 16 W/m² | - |
| 1788131635 | 20.56° C | 99% | 1016.9 hPa | 0 mm | - | 21 W/m² | - |
| 1788131334 | 20.56° C | 99% | 1016.8 hPa | 0 mm | - | 21 W/m² | - |
| 1788131030 | 20.56° C | 99% | 1016.7 hPa | 0 mm | - | 20 W/m² | - |
| 1788130729 | 20.56° C | 99% | 1016.8 hPa | 0 mm | - | 18 W/m² | - |
| 1788130424 | 20.56° C | 99% | 1017 hPa | 0 mm | - | 16 W/m² | - |
* Rain latest hour (hover to see other rain measurements)
** Current wind speed in m/s (hover to see current wind gust speed)